Regional Weather Roundup
Issued by NWS Cleveland, OH

Home | Current Version | Previous Version | Graphics & Text | Print | Product List | Glossary On
Versions: 1 2 3 4 5 6 7 8 9 10 11 12 13 14 15 16 17 18 19 20 21 22 23 24 25 26 27 28 29 30 31 32 33 34 35 36 37 38 39 40 41 42 43 44 45 46 47 48 49 50
000
ASUS41 KCLE 040100
RWRCLE
OHIO REGIONAL WEATHER ROUNDUP
NATIONAL WEATHER SERVICE WILMINGTON, OH
900 PM EDT TUE MAY 03 2016

NOTE: "FAIR" INDICATES FEW OR NO CLOUDS BELOW 12,000 FEET WITH NO
SIGNIFICANT WEATHER AND/OR OBSTRUCTIONS TO VISIBILITY.

OHZ001>008-015>018-024>027-034-035-043-044-040200-
   NORTHWEST OHIO

CITY           SKY/WX    TMP DP  RH WIND       PRES   REMARKS
DEFIANCE       FAIR      55  41  59 S7        29.81F
FINDLAY        FAIR      55  40  56 SW6       29.82R
TOLEDO EXPRESS FAIR      57  38  48 SW6       29.80S
TOLEDO EXEC    FAIR      53  44  71 S5        29.81S
LIMA           FAIR      52  43  71 S6        29.83S
$$

OHZ009>014-019>023-028>033-038-089-040200-
   NORTHEAST OHIO

CITY           SKY/WX    TMP DP  RH WIND       PRES   REMARKS
CLE-HOPKINS    FAIR      56  36  47 CALM      29.85S
CLE-LAKEFRONT  FAIR      53  44  71 CALM      29.82S
CUY CO. ARPT   PTCLDY    52  37  58 CALM      29.83S
LORAIN-ELYRIA  FAIR      53  36  52 CALM      29.83S
ASHTABULA      FAIR      48  41  76 CALM      29.84S
AKRON-CANTON   MOCLDY    54  37  52 N5        29.83R
WOOSTER        NOT AVBL
MANSFIELD      CLOUDY    54  44  69 CALM      29.84R
YOUNGSTOWN     FAIR      51  37  58 N6        29.83R
$$

OHZ042-051>053-060>062-070>072-077>081-040200-
  SOUTHWEST OHIO

CITY           SKY/WX    TMP DP  RH WIND       PRES   REMARKS
CINC-COVINGTON CLOUDY    54  51  90 SW6       29.87S
CINC-LUNKEN    CLOUDY    55  51  86 SW3       29.87S
HAMILTON       CLOUDY    56  49  77 W3        29.87S
DAYTON         NOT AVBL
WRIGHT-PAT AFB NOT AVBL
DAYTON GENERAL CLOUDY    56  45  66 W3        29.85S
WILMINGTON     CLOUDY    56  46  69 W6        29.85S
$$

OHZ036-037-039>041-045>050-054>059-063>069-073>076-082>088-040200-
  CENTRAL AND SOUTHEAST OHIO

CITY           SKY/WX    TMP DP  RH WIND       PRES   REMARKS
COLUMBUS       CLOUDY    56  45  66 W7        29.84R
OSU AIRPORT    CLOUDY    55  46  71 W6        29.84S
BOLTON FIELD   NOT AVBL
RICKENBACK AFB NOT AVBL
NEWARK         LGT RAIN  57  48  72 SW5       29.83S
MARION         CLOUDY    55  45  68 SW5       29.84S
LANCASTER      CLOUDY    55  48  77 CALM      29.85S
ZANESVILLE     CLOUDY    58  46  64 W5        29.84R
NEW PHILLY     CLOUDY    57  42  57 NW3       29.83R
$$




USA.gov is the U.S. government's official web portal to all federal, state and local government web resources and services.